Location: Beneden-Haastrecht
(52.0012°N, 4.7557°E)
Time: 14:03:14
(UTC+00:00)

Cosmos 44 - Pass Details

Date: 24 October 2020
Orbit: 577 x 784 km, 65.1° (Epoch: 28 November)

Event Time Altitude Azimuth Distance (km) Brightness Sun altitude
Rises 17:38:42 0° 188° (S) 2,857 6.6 -11.6°
Reaches altitude 10° 17:41:06 10° 177° (S) 1,986 5.7 -12.0°
Maximum altitude 17:45:00 30° 117° (ESE) 1,168 4.0 -12.6°
Enters shadow 17:47:34 18° 70° (ENE) 1,612 4.6 -12.9°
